Regional Weather Roundup
Issued by NWS

Home | Current Version | Previous Version | Graphics & Text | Print | Product List | Glossary On
Versions: 1 2 3 4 5 6 7 8 9 10 11 12 13 14 15 16 17 18 19 20 21 22 23 24 25 26 27 28 29 30 31 32 33 34 35 36 37 38 39 40 41 42 43 44 45 46 47 48 49 50
000
ASUS43 KLOT 290103
RWRIL

ILLINOIS REGIONAL WEATHER ROUNDUP
NATIONAL WEATHER SERVICE CHICAGO/ROMEOVILLE IL
800 PM CDT SAT MAY 28 2016

NOTE: "FAIR" INDICATES FEW OR NO CLOUDS BELOW 12,000 FEET WITH NO
SIGNIFICANT WEATHER AND/OR OBSTRUCTIONS TO VISIBILITY.

* THESE STATIONS ARE NOT UNDER NWS QUALITY CONTROL. THEY ALSO MAY NOT
  REPORT WEATHER SUCH AS PRECIPITATION OR FOG.

ILZ001-002-007-009-015-016-024-290200-
NORTHWEST ILLINOIS

CITY           SKY/WX    TMP DP  RH WIND       PRES   REMARKS
MOLINE         CLOUDY    78  61  55 SW8       29.85R HX  80
STERLING*      CLOUDY    73  67  81 CALM      29.87S
$$

ILZ003-004-008-010-011-017-018-290200-
NORTH CENTRAL ILLINOIS

CITY           SKY/WX    TMP DP  RH WIND       PRES   REMARKS
ROCKFORD       TSTM      70  63  78 S8        29.90R
FREEPORT*      CLOUDY    67  64  90 S9        29.89R
ROCHELLE*      TSTM      67  63  88 SW17G43   29.89S
$$

ILZ005-006-012>014-019>023-290200-
NORTHEAST ILLINOIS

CITY           SKY/WX    TMP DP  RH WIND       PRES   REMARKS
CHICAGO-OHARE  MOCLDY    77  64  64 S16G26    29.88S
CHICAGO-MIDWAY MOCLDY    81  61  50 S15       29.90R HX  82
AURORA         PTCLDY    79  66  64 S20G29    29.87S HX  81
WAUKEGAN       CLEAR     78  64  61 S10       29.87S HX  80
DUPAGE AIRPORT CLEAR     77  64  64 S16G26    29.87S
WHEELING       CLEAR     79  63  57 S18       29.89S HX  80
NORTHERLY ISL    N/A     79  60  52 S12         N/A  HX  80
NORTHERLY ISL    N/A     79  60  52 S12         N/A  HX  80
$$

LMZ740>746-290200-
SOUTHERN LAKE MICHIGAN

STATION/POSITION SKY/WX   TEMP    WIND        PRES    VSBY  WAVE
                          AIR SEA DIR/SP/G                  HT/PER
                          (F)     (DEG/KT/KT) (MB)    (MI)  (FT/S)
SOUTHERN BUOY              58 50  140/ 10/ 12 1012.2          1/ 4
WILMETTE HARBOR            65 54  200/ 10/ 14   N/A           2/ 3
HARRISON CRIB              79     190/ 23/ 24   N/A
BURNHAM HARBOR             79     190/  8/ 21   N/A
CALUMET HARBOR                    170/ 15/ 20   N/A
BURNS HARBOR               80     190/ 14/ 21 1013.5R
MICHIGAN CITY              81     150/ 14/ 18   N/A
MICHIGAN CITY 6N           71 57  200/ 10/ 12   N/A           2/ 3
ST. JOSEPH                 71 61  190/ 10/ 12   N/A           2/ 3
$$

ILZ025>027-034>036-040-047-049-050-058-095>099-290200-
WEST-CENTRAL ILLINOIS

CITY           SKY/WX    TMP DP  RH WIND       PRES   REMARKS
QUINCY         CLOUDY    77  59  53 W13G20    29.90R
MACOMB*        CLOUDY    77  67  71 SW7       29.90R
PITTSFIELD*    CLOUDY    74  66  78 S9        29.93R
$$

ILZ028>032-037-038-041>044-048-051>054-059>061-290200-
CENTRAL ILLINOIS

CITY           SKY/WX    TMP DP  RH WIND       PRES   REMARKS
BLOOMINGTON    MOCLDY    78  69  73 S21       29.94R HX  80
DECATUR        CLOUDY    77  66  68 S15       29.95R
PEORIA         LGT RAIN  68  59  73 SW25G31   29.91R
SPRINGFIELD    CLOUDY    80  67  64 S16       29.92R HX  82
TAYLORVILLE    NOT AVBL
$$

ILZ033-039-045-046-055>057-062-063-290200-
EAST-CENTRAL ILLINOIS

CITY           SKY/WX    TMP DP  RH WIND       PRES   REMARKS
CHAMPAIGN      PTCLDY    77  67  71 S20G26    29.96R
MATTOON        PTCLDY    76  65  68 S12       29.97R
$$

ILZ079-100>102-290200-
SOUTHWEST ILLINOIS

CITY           SKY/WX    TMP DP  RH WIND       PRES   REMARKS
BELLEVILLE     PTCLDY    77  68  73 VRB3      29.94S
CAHOKIA*       CLOUDY    79  66  64 S8        29.94R HX  81
SPARTA*        PTCLDY    77  67  72 S10       29.98S
$$

ILZ064>066-069>071-074>076-080>082-084>086-088>090-092>094-290200-
SOUTH-CENTRAL ILLINOIS

CITY           SKY/WX    TMP DP  RH WIND       PRES   REMARKS
CARBONDALE     PTCLDY    76  67  73 S8        29.99S
EFFINGHAM*     PTCLDY    76  66  71 S9        30.00R
MT. VERNON     CLOUDY    75  64  69 S7        30.00S
SALEM*         PTCLDY    78  66  68 S8        29.98S
$$

ILZ067-068-072-073-078-083-087-091-290200-
SOUTHEAST ILLINOIS

CITY           SKY/WX    TMP DP  RH WIND       PRES   REMARKS
LAWRENCEVILLE  PTCLDY    78  67  68 S14       30.02R HX  80
FLORA*         MOCLDY    78  69  73 S10       30.00R HX  80
HARRISBURG*    CLOUDY    77  70  79 SE6       30.02R
ROBINSON*      PTCLDY    75  65  73 S9        30.02R
$$

ABBREVIATIONS USED IN REMARKS
   TC - TEMPERATURE IN CELSIUS
  WCI - WIND CHILL INDEX
   HX - HEAT INDEX
  VSB - VISIBILITY
$$





USA.gov is the U.S. government's official web portal to all federal, state and local government web resources and services.